• Unsere Gaststätte hat ab dem 20.06.2020 wieder für Sie geöffenet!

    Unsere Gaststätte hat ab dem 20.06.2020 wieder für Sie geöffenet!

    Wir freuen uns auf Ihren Besuch!

  • Frühling ist Ausbildungsbeginn !!

    Frühling ist Ausbildungsbeginn !!

    Du wolltest schon immer mal Pilot werden ?
    Jetzt ist der richtige Zeitpunkt!
    Die Ausbildung zum Segelflugpiloten findet wieder statt.
    Ab 14 Jahre geht es bereits los.
    Auch die Ausbildung zum

    zum Bericht
  • GPS Triangle WM

    GPS Triangle WM

    Die GPS WM wurde aufgrund der Corona Beschränkungen auf 2021 verschoben.

    zum Bericht
  • 1
  • 1

WebCam

  
Kamera Halle
Kamera Vorfeld

GPS Triangle WM Sports Class

AeroClub Göppingen-Salach e.V.
Ausrichter der Modellflug
GPS Triangle-WM 2020

 

Aufgrund der aktuellen Corona Situation ist die WM auf den 15.8.-20.8.2021 verschoben
Wetter EDDS

METAR

EDDS 250720Z 19005KT 150V260 9999 FEW020 10/08 Q1002 NOSIG =
EDDS 250500Z 2506/2606 21006KT 9999 SCT025 PROB30 TEMPO 2600/2606 4000 RADZ BKN014


TAF

EDDS 250500Z 2506/2606 21006KT 9999 SCT025 PROB30 TEMPO 2600/2606 4000 RADZ BKN014 =


SR/SS

05:12 / 17:12 UTC
(EDSO 25-09-2020)